Погода в Кочетово

Россия / Республика Тыва     51°20′41″N   94°03′46″E
темп.,
°C
ветер,
м/с
пор.,
м/с
влажн.,
%
обл.,
%
осадки,
мм/ч
давл.,
гПа
погр.,
м
22 апреля, чт
чт2201:00−4юз113378 0.0 102016
04:00−4з213492 0.0 102220
07:00−3зсз2339100 0.0 1024346
10:000ссз333859 0.0 10251245
13:00+3с433140 0.0 10241915
16:00+4ссв332757 0.0 10242241
19:00+2ссз684793 0.0 1026658
22:000зсз3455100 0.1 1031459
23 апреля, пт
пт2301:00−2з1161100 0.1 103244
04:00−2сз1356100 0.0 1032238
07:00−3зсз2363100 0.1 1034703
10:00−3ссз2285100 0.8 1034516
13:00−1с2278100 1.5 1033707
16:000ссв2268100 0.3 1032775
19:00+1ссв116469 0.3 1031632
22:00−2ююв117895 0.0 103217
24 апреля, сб
сб2401:00−2юз1195100 0.2 103279
04:00−2зюз129699 0.7 1030122
07:00−2з129189 1.1 1028269
10:00+1сз227195 0.1 1026902
13:00+3ссз225681 0.2 10231262
16:00+4всв116099 0.4 10221034
19:00+3з23656 1.1 1022250
22:00−1з347773 0.0 1025115
25 апреля, вс
вс2501:00−1юз2285100 0.0 102665
04:00−1з2368100 0.0 1026136
07:00−1зсз3860100 0.0 10281019
10:00+2ссз574480 0.0 10271708
13:00+4ссз6737100 0.1 10252334
16:00+5ссз7733100 0.1 10232579
19:00+3с574189 0.1 10261401
22:00−1зюз225815 0.0 102928
26 апреля, пн
пн2601:00−3зюз22705 0.0 103020
04:00−3юз22745 0.0 103020
07:00−1зюз12575 0.0 1031184
10:00+3ссз343955 0.0 10291659
13:00+5с333496 0.0 10262111
16:00+7ссз342982 0.0 10242317
19:00+5сз123745 0.0 1025160
22:00+1ююз224969 0.0 102720